ATLAS 5 CENTAUR DEB, 43956

Orbit data source: Space-Track

ATLAS 5 CENTAUR DEB, 43956 is space debris in HEO originally from a launch on Wed, 17 Sep 2014 UTC launched from the Air Force Eastern Test Range (AFETR). Debris objects in space refer to the collection of defunct objects orbiting the Earth. Examples of debris include non-operational satellites, rocket bodies, and fragments generated from explosions, collisions, or faulty payload assembly.

Loading next visibility...
Identifier
43956, 2014-055K
Orbit
HEO
Country
Flag of USUS
Related business
Flag of USUnited Launch Alliance/Lockheed Martin (US)
Manufacturer
Unknown
Mission
Spacecraft
Bus & Motor
Unknown
Mass
Unknown
Launch date (UTC)
2014-09-17 (12 years ago)
Launch vehicle
Unknown
Launch site
Air Force Eastern Test Range (AFETR)
Object type
Payload
Rocket body
Debris
Shape & HBR
Unknown shape, 1.1 m
Radar Cross Section
Medium (>0.1 m² and <1 m²)

Expand to show TLE details & history
Last TLE update: 3 months ago

TLE from 3 months ago
0 ATLAS 5 CENTAUR DEB
1 43956U 14055K   26139.02316465  .00000011  00000-0  00000-0 0  9992
2 43956  20.9728 102.4950 5075149 242.0586  58.0678  1.92105117 53577
Epoch: 2026-05-19T00:33Z
TLE epoch observation values (Epoch: 2026-05-19T00:33:21.425Z)
Latitude
-0.00002°
Longitude
-142.65371°
Altitude
20,233.897 km
Speed
3.921 km/s
True Right ascension
06h 49m 33s
True Declination
0° 00' 00"
Sunlit
Object was in daylight at epoch
Visualization orbit readout
Latitude
Unknown
Longitude
Unknown
Altitude
Unknown
Speed
Unknown
Apparent Right ascension
Unknown
Apparent Declination
Unknown
Sunlit
N/A
Visualization observer readout
Local Sidereal Time
16:03:01
Azimuth
Unknown
Elevation
Unknown
Doppler factor
Unknown
Orbital elements
Apogee altitude
34,831.94 km
Perigee altitude
7,084.648 km
Semi-major axis
27,336.431 km
Eccentricity
0.50751
Inclination
20.9728°
RAAN
102.495°
Arg. of periapsis
242.0586°
True anomaly
117.97522°
Mean anomaly
58.0678°
Eccentric anomaly
87.10926°
Mean motion
0.48021 °/min
Orbital period
749.67 mins
BSTAR
0
Loading maneuver chart data...
Computing Atmospheric mass density...

Documentation

Showing up to 5 results
|